Regional Weather Roundup
Issued by NWS

Home | Current Version | Previous Version | Graphics & Text | Print | Product List | Glossary Off
Versions: 1 2 3 4 5 6 7 8 9 10 11 12 13 14 15 16 17 18 19 20 21 22 23 24 25 26 27 28 29 30 31 32 33 34 35 36 37 38 39 40 41 42 43 44 45 46 47 48 49 50

000
ASUS43 KMKX 011600
RWRWI

WISCONSIN REGIONAL WEATHER ROUNDUP
NATIONAL WEATHER SERVICE MILWAUKEE/SULLIVAN WI
1100 AM CDT MON SEP 01 2014

NOTE: "FAIR" INDICATES FEW OR NO CLOUDS BELOW 12,000 FEET WITH NO
SIGNIFICANT WEATHER AND/OR OBSTRUCTIONS TO VISIBILITY.

WIZ001-002-006>008-014>016-023>028-011700-
NORTHWEST WISCONSIN

CITY           SKY/WX    TMP DP  RH WIND       PRES   REMARKS
SUPERIOR ARPT  PTSUNNY   66  60  81 W7        29.62S
ASHLAND        CLOUDY    66  62  87 W8        29.63R
HAYWARD        CLOUDY    67  64  90 CALM      29.66R
SIREN          PTSUNNY   66  63  90 W8        29.67R
RICE LAKE      CLOUDY    67  62  84 W7        29.69R
LADYSMITH      CLOUDY    66  64  95 W6        29.66S
EAU CLAIRE     CLOUDY    69  66  90 W8        29.66R
MENOMONIE      PTSUNNY   71  65  83 W8        29.67R
NEW RICHMOND   PTSUNNY   69  65  86 W10       29.69R
OSCEOLA        CLOUDY    67  66  97 W5        29.72R
$$

WIZ003>005-009-010-017-018-011700-
NORTH CENTRAL WISCONSIN

CITY           SKY/WX    TMP DP  RH WIND       PRES   REMARKS
WOODRUFF       RAIN      63  61  93 SW3       29.62F
RHINELANDER    LGT RAIN  63  61  93 S9        29.65F
EAGLE RIVER    RAIN      63  63 100 SW8       29.65S
LAND O LAKES   LGT RAIN  64  63  96 SW6       29.65S
PHILLIPS       CLOUDY    63  62  97 SW7       29.64S
TOMAHAWK       RAIN      63  61  94 E7        29.63F
MEDFORD        DRIZZLE   63  62  97 S8        29.66R
MERRILL        LGT RAIN  63  63  99 SE6       29.65F
$$

WIZ029-030-035-036-043>047-011700-
CENTRAL WISCONSIN

CITY           SKY/WX    TMP DP  RH WIND       PRES   REMARKS
WAUSAU         CLOUDY    66  64  93 SW9       29.66F
MOSINEE        CLOUDY    64  64 100 S7        29.70S
MARSHFIELD     CLOUDY    66  66 100 SW9       29.67S
STEVENS POINT  LGT RAIN  63  62  96 SW6       29.70F
WAUPACA        LGT RAIN  67  66  94 S5        29.71S
WAUTOMA        NOT AVBL
WISC RAPIDS    LGT RAIN  66  64  93 SW9       29.70S
CAMP DOUGLAS   CLOUDY    66  66 100 S5        29.69S FOG
$$

WIZ011>013-019>022-031-037>040-048>050-011700-
NORTHEAST WISCONSIN

CITY           SKY/WX    TMP DP  RH WIND       PRES   REMARKS
ANTIGO         LGT RAIN  62  62  98 SW8       29.70R
STURGEON BAY   CLOUDY    70  64  83 SW12G18   29.70S
GREEN BAY      CLOUDY    67  64  90 SW7       29.71F
MANITOWOC      RAIN      70  68  94 W5        29.72F
APPLETON       CLOUDY    68  66  94 SW6       29.72F
CLINTONVILLE   HVY RAIN  64  63  94 S8        29.71R
OSHKOSH        CLOUDY    72  65  78 SW6       29.71F
$$

WIZ032>034-041-042-053>061-011700-
SOUTHWEST WISCONSIN

CITY           SKY/WX    TMP DP  RH WIND       PRES   REMARKS
LA CROSSE      PTSUNNY   73  67  81 SW8       29.68R
SPARTA         CLOUDY    65  64  94 CALM      29.69S
VIROQUA        CLOUDY    65  65 100 SW9       29.71S
BOSCOBEL       CLOUDY    70  66  87 SW10      29.72S
PRAIRIE DU CHI CLOUDY    69  65  86 SW10G17   29.73R
PLATTEVILLE    CLOUDY    71  66  83 SW14G23   29.76R
$$

WIZ056-057-062-063-064-067-068-011700-
SOUTH CENTRAL WISCONSIN

CITY           SKY/WX    TMP DP  RH WIND       PRES   REMARKS
BARABOO/DELLS  RAIN      67  61  82 SW8       29.72R
LONE ROCK      LGT RAIN  71  65  81 SW8       29.72S
WATERTOWN      CLOUDY    71  69  95 SW10      29.75R
MADISON        PTSUNNY   73  63  70 SW8       29.73R
MIDDLETON      PTSUNNY   73  62  68 SW9       29.74R
MONROE         PTSUNNY   72  64  78 SW17G24   29.77R
JANESVILLE     PTSUNNY   73  64  73 SW14G24   29.76R
$$

WIZ051-052-058>065-066-070>072-011700-
SOUTHEAST WISCONSIN

CITY           SKY/WX    TMP DP  RH WIND       PRES   REMARKS
MILWAUKEE      LGT RAIN  73  69  87 SW14      29.75R
WAUKESHA       PTSUNNY   70  68  94 SW9       29.76R FOG
MILWAUKEE/TIMM LGT RAIN  72  68  88 SW14      29.75R
RACINE         LGT RAIN  74  69  85 SW12      29.77R
BURLINGTON     CLOUDY    70  68  94 SW14      29.75R
KENOSHA        CLOUDY    74  70  87 SW14      29.76R
FOND DU LAC    CLOUDY    72  66  81 SW6       29.73R
SHEBOYGAN      CLOUDY    72  69  90 W3        29.72S FOG
WEST BEND      CLOUDY    70  66  88 S8        29.73R
JUNEAU         CLOUDY    70  66  88 S7        29.75R
$$

LSZ147-162-011700-
LAKE SUPERIOR

STATION/POSITION TIME  TEMP    WIND        PRES    WAVE
                       AIR SEA DIR/SP/G            HT/PER
                 (UTC) (F)     (DEG/KT/KT) (MB)    (FT/S)
W MID LAKE BUOY  1450   60 58  220/ 10/ 12 1000.7F   2/ 4
DEVILS ISLAND    1500   63     260/ 14/ 15 1001.6R
PORT WING        1500   63     290/ 11/ 13 1003.0R
SAXON HARBOR     1500   67     200/  1/  4 1002.7R
$$

LMZ867-665-643>646-011700-
LAKE MICHIGAN

STATION/POSITION TIME  TEMP    WIND        PRES    WAVE
                       AIR SEA DIR/SP/G            HT/PER
                 (UTC) (F)     (DEG/KT/KT) (MB)    (FT/S)
N MID LAKE BUOY  1450   68 65  200/ 17/ 21 1004.1S   4/ 6
NORTHPORT PIER   1500   68     180/  5/ 11 1005.1R
KEWAUNEE LAKESHO 1500   69     210/  8/ 14 1005.1R
SHEBOYGAN LAKESH 1500   71 54  230/ 10/ 11 1006.4R
ATWATER BUOY     1500   73     230/ 12/ 16 1007.5R
MILWAUKEE LAKESH 1500   74     240/ 11/ 16   N/A
S MID LAKE BUOY  1450   72 69  190/ 19/ 23 1006.3R   4/ 5
KENOSHA   LAKESH 1500   76     220/ 11/ 20 1007.1R
$$

TC  - TEMPERATURE IN CELSIUS
VSB - VISIBILITY IN STATUTE MILES
WCI - WIND CHILL INDEX
HX  - HEAT INDEX



USA.gov is the U.S. government's official web portal to all federal, state and local government web resources and services.